User: anonymous   Login
Location: Arthez
(43.0833°N, 0.2500°W)
Time: 23:12:59
(UTC+00:00)
Language:

KANOPUS-V 4 - Orbit

View from above orbital plane
View from above orbital plane
View from above satellite
View from above satellite

Ground track
Ground track

The orbit data is extracted from the following two-line orbital elements,

1 43181U 18014B   22222.56801249  .00001237  00000-0  59791-4 0  9994
2 43181  97.4267 130.4704 0001820  86.5811  35.5373 15.20465157250754
Epoch (UTC): 10 August 2022 13:37:56
Eccentricity: 0.0001820
inclination: 97.4267°
perigee height: 503 km
apogee height: 505 km
right ascension of ascending node: 130.4704°
argument of perigee: 86.5811°
revolutions per day: 15.20465157
mean anomaly at epoch: 35.5373°
orbit number at epoch: 25075

The dashed part of the orbit path shows where the satellite is in the earth's shadow,  

DLR